Location: Shepherdstown, WV
(39.4326°N, 77.8042°W)
Time: 07:49:54
(UTC-04:00)

Tiros 1 despin weight - Pass Details

Date: 24 July 2021
Orbit: 594 x 641 km, 48.2° (Epoch: 16 September)

Event Time Altitude Azimuth Distance (km) Brightness Sun altitude
Rises 00:29:28 0° 294° (WNW) 2,905 ? -29.7°
Reaches altitude 10° 00:32:02 10° 283° (WNW) 1,987 ? -29.8°
Enters shadow 00:32:41 13° 278° (W) 1,772 ? -29.8°
